Location: Grand Rapids
(42.9630°N, 85.6680°W)
Time: 07:55:33
(UTC-04:00)

Tiros 1 - Pass Details

Date: 19 April 2025
Orbit: 620 x 652 km, 48.4° (Epoch: 13 May)

Event Time Altitude Azimuth Distance (km) Brightness Sun altitude
Exits shadow 06:16:59 - 218° (SW) 2,450 9.6 -7.2°
Reaches altitude 10° 06:18:04 10° 214° (SW) 2,044 9.2 -7.0°
Maximum altitude 06:22:32 43° 144° (SE) 913 8.1 -6.3°
Drops below altitude 10° 06:27:01 10° 73° (ENE) 2,056 11.6 -5.5°
Sets 06:29:27 0° 66° (ENE) 2,968 13.5 -5.1°
